Lid_Strength_Index
8 12 14 12 10 11 12 12 13 11 10 13 13 12 12 10 11 11 11 11 11 7 4 3 3 3 2 3 3 3 3 1 2 2 2 2 2 2 2 2 2 2 1 1
11 13 10 9 9 11 12 13 13 12 11 13 14 13 11 11 11 11 10 10 10 10 9 7 3 3 2 2 3 2 3 2 1 1 1 1 1 1 1 1 2 2 2 2
12 11 8 9 11 12 13 13 13 13 13 13 13 14 13 11 11 10 10 10 10 9 9 8 7 3 2 3 3 3 2 2 2 1 1 3 3 4 3 2 2 2 2 2
11 8 10 11 12 11 15 11 11 13 13 17 12 18 14 12 11 11 9 9 9 9 10 8 9 6 3 3 3 3 3 2 2 1 1 2 2 3 1 1 1 1 2 2
12 11 11 12 12 10 13 10 11 12 14 15 17 17 14 15 14 11 10 9 8 8 8 8 8 8 5 3 2 3 3 3 3 2 1 2 2 2 1 2 2 2 2 1
10 8 9 10 9 9 9 11 11 12 14 19 15 15 16 15 14 13 11 10 9 8 8 8 7 8 8 5 3 3 3 3 3 2 2 2 2 2 2 3 3 2 1 2
12 11 9 8 11 10 11 13 19 20 20 20 14 16 14 13 13 12 11 11 11 11 10 9 8 9 8 6 5 3 3 3 3 3 3 2 2 2 2 2 3 2 2 2
16 18 12 9 11 13 13 13 18 22 22 20 17 18 14 11 10 11 12 12 12 12 11 11 10 10 9 8 7 4 3 3 3 3 3 2 2 2 2 2 2 2 2 2
16 15 9 9 9 10 13 15 11 17 23 20 18 17 14 14 13 12 12 13 13 12 12 12 11 11 11 10 9 6 4 3 3 2 3 3 3 3 2 2 2 2 2 2
12 16 11 10 9 9 11 10 16 15 21 22 19 19 15 15 14 13 12 12 12 13 13 13 13 13 13 12 11 9 6 4 4 4 3 2 2 3 2 2 3 2 2 2
12 13 14 11 13 13 13 14 13 13 16 19 21 17 15 13 12 12 10 10 12 13 13 13 13 13 12 12 12 11 8 7 6 5 5 4 4 4 3 3 3 3 3 3
11 13 16 15 11 9 10 12 13 17 18 18 18 15 13 10 10 11 10 11 12 13 13 13 13 12 13 12 12 11 11 11 11 11 10 9 8 8 7 5 4 4 3 2
11 14 18 17 14 11 13 12 11 12 13 17 18 16 14 13 14 13 13 13 13 13 13 13 13 13 12 12 12 12 11 11 11 11 11 11 11 11 10 10 9 8 6 5
9 13 15 18 16 13 15 13 12 12 16 15 15 13 14 15 14 13 13 12 13 13 13 13 14 13 12 12 11 12 11 11 11 11 10 11 11 10 10 10 10 10 9 8
10 15 14 13 12 12 13 13 12 14 13 15 13 13 14 14 14 12 13 14 13 13 13 13 13 13 12 13 12 12 12 11 11 11 11 11 11 11 11 11 11 9 8 8
9 15 13 15 12 12 14 13 12 12 12 12 14 13 11 13 15 14 14 13 13 12 12 13 13 12 13 13 12 12 12 11 11 11 11 12 12 12 12 12 12 11 10 10
12 14 15 17 14 14 17 14 13 12 11 11 13 11 12 13 14 14 13 12 12 12 13 12 11 12 12 12 12 12 12 12 12 12 12 13 12 12 12 12 12 12 12 10
12 14 14 17 15 21 14 10 10 11 10 9 10 11 11 10 11 12 11 12 12 11 12 12 12 12 12 13 12 12 12 12 12 13 12 12 12 12 12 12 12 11 11 11
9 12 16 18 18 15 16 14 11 12 12 10 10 9 11 11 11 12 12 12 11 11 11 11 12 12 13 13 12 13 13 13 13 12 12 12 12 14 12 12 11 11 13 12
10 10 14 16 19 21 13 12 9 10 15 10 9 9 9 12 13 11 10 12 13 12 12 12 12 13 13 14 14 14 14 13 12 12 12 13 13 14 13 11 12 13 13 13
15 14 16 16 18 17 14 12 9 16 14 9 9 8 9 11 9 9 11 11 11 12 12 13 13 13 14 15 14 14 14 13 13 13 13 15 15 14 13 13 13 13 13 13
15 16 16 16 21 19 13 11 13 10 10 11 9 9 9 9 8 11 11 12 12 13 14 14 14 15 16 15 14 14 13 13 15 16 15 15 14 13 13 13 13 13 13 13
15 13 15 14 14 14 10 9 10 10 12 14 12 10 8 8 9 12 13 14 13 14 14 15 15 16 16 15 15 15 15 16 17 14 14 14 14 13 13 13 13 13 13 13
15 12 14 15 15 15 11 13 13 13 13 14 14 12 10 9 11 13 13 14 14 15 15 17 16 17 17 16 15 14 16 17 15 14 15 14 13 13 13 13 13 13 13 13
14 14 17 16 16 15 15 13 12 13 14 15 15 15 13 12 13 13 14 14 14 15 17 16 16 16 17 17 17 16 16 15 15 15 15 14 14 13 14 14 14 14 14 13
17 16 13 15 14 14 14 11 13 13 14 14 14 15 15 14 14 15 14 15 15 16 17 17 17 17 17 17 17 17 16 15 15 16 16 15 15 15 15 15 15 12 12 11